Flag for U.S.A. Weather past 2 weeks in Louisville, Kentucky, U.S.A.

Now
74 °F

Passing clouds.


Feels Like: 77 °F
Forecast: 72 / 79 °F
Wind: 14 mph from South

Location: Standiford Field

Current Time: May 25, 2015 at 6:22:27 AM

Latest Report: May 25, 2015 at 5:56 AM


Visibility: 10 mi

Pressure: 30.06 "Hg

Humidity: 57%

Dew point: 58 °F

Location of LouisvilleLocation

Historic Weather in Louisville — Graph

°F

Louisville temperature yesterday

Maximum temperature yesterday: 85 °F (at 4:56 PM)
Minimum temperature yesterday: 62 °F (at 6:56 AM)
Average temperature yesterday: 75 °F

Past Weeks' High & Low Weather Summary

 TemperatureHumidityPressure
High88 °F (May 11, 1:56 PM)93% (May 16, 11:56 PM)30.38 "Hg (May 16, 11:56 PM)
Low48 °F (May 22, 6:56 AM)27% (May 23, 3:56 PM)29.89 "Hg (May 11, 4:56 PM)
Average69 °F63%30.14 "Hg
* Reported May 10 4:56 AM — May 25 4:56 AM, Louisville, Weather by CustomWeather, © 2015

Note: Actual official high and low records may vary slightly from our data, if they occured in-between our weather recording intervals... More about our weather records

Advertising

Louisville weather history for previous 24 hours

 ConditionsComfort  
Time TempWeatherWind HumidityBarometerVisibility
4:56 AM
Mon, May 25
75 °FOvercast.15 mph55%30.05 "Hg10 mi
3:56 AM76 °FMostly cloudy.10 mph54%30.06 "Hg10 mi
2:56 AM76 °FPartly cloudy.14 mph54%30.05 "Hg10 mi
1:56 AM77 °FMostly cloudy.17 mph52%30.06 "Hg10 mi
12:56 AM77 °FPassing clouds.14 mph52%30.08 "Hg10 mi
11:56 PM
Sun, May 24
75 °FPassing clouds.12 mph55%30.09 "Hg10 mi
10:56 PM76 °FPassing clouds.9 mph54%30.09 "Hg10 mi
9:56 PM78 °FPassing clouds.12 mph50%30.07 "Hg10 mi
8:56 PM80 °FPartly sunny.10 mph47%30.07 "Hg10 mi
7:56 PM82 °FScattered clouds.17 mph43%30.07 "Hg10 mi
6:56 PM84 °FScattered clouds.17 mph40%30.07 "Hg10 mi
5:56 PM84 °FScattered clouds.13 mph41%30.09 "Hg10 mi
4:56 PM85 °FScattered clouds.16 mph42%30.11 "Hg10 mi
3:56 PM84 °FBroken clouds.15 mph40%30.14 "Hg10 mi
2:56 PM84 °FScattered clouds.10 mph41%30.16 "Hg10 mi
1:56 PM83 °FScattered clouds.15 mph40%30.18 "Hg10 mi
12:56 PM82 °FPartly sunny.17 mph38%30.19 "Hg10 mi
11:56 AM81 °FScattered clouds.14 mph38%30.22 "Hg10 mi
10:56 AM78 °FScattered clouds.16 mph42%30.24 "Hg10 mi
9:56 AM74 °FPartly sunny.12 mph46%30.26 "Hg10 mi
8:56 AM70 °FBroken clouds.8 mph57%30.24 "Hg10 mi
7:56 AM65 °FMore clouds than sun.7 mph70%30.25 "Hg10 mi
6:56 AM62 °FOvercast.6 mph75%30.24 "Hg10 mi
Weather by CustomWeather, © 2015

See weather overviewHow to use our weather pages